User: anonymous   Login
Location: Tyler Bend Campground
(35.9875°N, 92.7606°W)
Time: 06:44:35
(UTC-05:00)
Language:

CZ-2C R/B - Orbit

View from above orbital plane
View from above orbital plane
View from above satellite
View from above satellite

Ground track
Ground track

The orbit data is extracted from the following two-line orbital elements,

1 36089U 09061B   18110.92818231 +.00000093 +00000-0 +34458-4 0  9997
2 36089 098.0703 104.3252 0082089 177.1252 240.8117 14.49723066446205
Epoch (UTC): 20 April 2018 22:16:34
Eccentricity: 0.0082089
inclination: 98.0703°
perigee height: 668 km
apogee height: 785 km
right ascension of ascending node: 104.3252°
argument of perigee: 177.1252°
revolutions per day: 14.49723066
mean anomaly at epoch: 240.8117°
orbit number at epoch: 44620

The dashed part of the orbit path shows where the satellite is in the earth's shadow,  

DLR